Baltimore Martin, MD

7:25 PM EDT on August 20, 2017 (GMT -0400)
Martin State

Weather History for KMTN - October, 2012

Change the Weather History Date:

Monday, October 1, 2012

  Actual Average Record
Temperature  
Mean Temperature 59 °F -  
Max Temperature 68 °F 68 °F 78 °F (1998)
Min Temperature 50 °F 52 °F 33 °F (1996)
Degree Days  
Heating Degree Days 6    
Growing Degree Days 9 (Base 50)    
Moisture  
Dew Point 53 °F    
Average Humidity 89    
Maximum Humidity 100    
Minimum Humidity 60    
Precipitation  
Precipitation 0.00 in - - ()
Sea Level Pressure  
Sea Level Pressure 29.94 in    
Wind  
Wind Speed 2 mph (SW)    
Max Wind Speed 9 mph    
Max Gust Speed -    
Visibility 7 miles    
Events Rain    
Averages and records for this station are not official NWS values.
T = Trace of Precipitation, MM = Missing Value Source: NWS Daily Summary

Daily Weather History Graph

Daily Weather History Graph

Search for Another Location

Airport or City:

Trip Planner

Search our weather history database for the weather conditions in past years. The results will help you decide how hot, cold, wet, or windy it might be!

Date:

Astronomy

Oct. 01, 2012 Rise Set
Actual Time 7:02 AM EDT 6:47 PM EDT
Civil Twilight 6:35 AM EDT 7:14 PM EDT
Nautical Twilight 6:04 AM EDT 7:45 PM EDT
Astronomical Twilight 5:32 AM EDT 8:16 PM EDT
Moon 7:24 PM EDT (10/1) 8:28 AM EDT (10/1)
Length of Visible Light 12h 38m
Length of Day
11h 45m
Full, 98% of the Moon is Illuminated
Oct 1
Full
Oct 8
Last Quarter
Oct 15
New
Oct 21
First Quarter
Oct 29
Full

Hourly Weather History & Observations

Time (EDT) Temp. Dew Point Humidity Pressure Visibility Wind Dir Wind Speed Gust Speed Precip Events Conditions
12:24 AM 53.6 °F 53.6 °F 100% 29.91 in 7.0 mi Calm Calm - N/A   Clear
12:45 AM 53.6 °F 53.6 °F 100% 29.91 in 7.0 mi Calm Calm - N/A   Clear
1:06 AM 53.6 °F 53.6 °F 100% 29.90 in 5.0 mi West 3.5 mph - N/A   Clear
1:27 AM 51.8 °F 51.8 °F 100% 29.90 in 7.0 mi WNW 4.6 mph - N/A   Clear
1:48 AM 51.8 °F 51.8 °F 100% 29.91 in 10.0 mi WSW 3.5 mph - N/A   Clear
2:09 AM 51.8 °F 51.8 °F 100% 29.92 in 7.0 mi Calm Calm - N/A   Clear
2:54 AM 50.0 °F 50.0 °F 100% 29.91 in 4.0 mi West 3.5 mph - N/A   Clear
3:15 AM 50.0 °F 50.0 °F 100% 29.91 in 4.0 mi Calm Calm - N/A   Clear
3:36 AM 50.0 °F 50.0 °F 100% 29.91 in 3.0 mi Calm Calm - N/A   Clear
3:57 AM 50.0 °F 50.0 °F 100% 29.91 in 2.0 mi Calm Calm - N/A   Clear
4:18 AM 50.0 °F 50.0 °F 100% 29.92 in 5.0 mi Calm Calm - N/A   Clear
4:39 AM 50.0 °F 50.0 °F 100% 29.92 in 5.0 mi Calm Calm - N/A   Clear
5:00 AM 50.0 °F 50.0 °F 100% 29.92 in 5.0 mi Calm Calm - N/A   Clear
5:21 AM 50.0 °F 50.0 °F 100% 29.93 in 4.0 mi Calm Calm - N/A   Clear
5:33 AM 50.0 °F 50.0 °F 100% 29.93 in 5.0 mi Calm Calm - N/A   Clear
5:55 AM 50.0 °F 50.0 °F 100% 29.93 in 5.0 mi Calm Calm - N/A   Mostly Cloudy
6:50 AM 50.0 °F 50.0 °F 100% 29.93 in 5.0 mi NW 3.5 mph - N/A   Scattered Clouds
7:45 AM 50.0 °F 50.0 °F 100% 29.95 in 7.0 mi NW 4.6 mph - N/A   Scattered Clouds
8:55 AM 57.2 °F 53.6 °F 88% 29.97 in 10.0 mi NW 4.6 mph - N/A   Scattered Clouds
9:45 AM 59.0 °F 53.6 °F 82% 29.98 in 10.0 mi Calm Calm - N/A   Scattered Clouds
11:50 AM 66.2 °F 53.6 °F 64% 29.97 in 10.0 mi Calm Calm - N/A   Scattered Clouds
12:45 PM 68.0 °F 55.4 °F 64% 29.97 in 10.0 mi SE 9.2 mph - N/A   Scattered Clouds
3:45 PM 68.0 °F 53.6 °F 60% 29.94 in 10.0 mi SE 8.1 mph - N/A   Mostly Cloudy
4:45 PM 68.0 °F 55.4 °F 64% 29.94 in 10.0 mi SE 5.8 mph - N/A   Mostly Cloudy
6:45 PM 66.2 °F 51.8 °F 60% 29.96 in 10.0 mi South 6.9 mph - N/A   Overcast
7:45 PM 66.2 °F 51.8 °F 60% 29.97 in 10.0 mi South 4.6 mph - N/A   Overcast
8:55 PM 64.4 °F 55.4 °F 73% 29.98 in 10.0 mi South 4.6 mph - N/A Rain Light Rain
9:50 PM 64.4 °F 57.2 °F 77% 29.98 in 10.0 mi SSE 4.6 mph - N/A   Overcast
10:42 PM 62.6 °F 59.0 °F 88% 29.96 in 10.0 mi Calm Calm - N/A   Scattered Clouds
11:03 PM 62.6 °F 59.0 °F 88% 29.97 in 10.0 mi Calm Calm - N/A   Mostly Cloudy
11:24 PM 62.6 °F 59.0 °F 88% 29.98 in 10.0 mi Calm Calm - N/A   Overcast
11:48 PM 62.6 °F 59.0 °F 88% 29.97 in 10.0 mi Calm Calm - N/A   Overcast